Time,TemperatureF,DewpointF,PressureIn,WindDirection,WindDirectionDegrees,WindSpeedMPH,WindSpeedGustMPH,Humidity,HourlyPrecipIn,Conditions,Clouds,dailyrainin,SoftwareType,DateUTC
2013-03-17 00:00:00,46.8,32.3,29.80,NE,48,0.0,3.1,57,0.00,,---,0.35,VWS V14.01,2013-03-17 04:00:00,
2013-03-17 00:01:00,46.8,32.3,29.80,NE,48,0.0,0.0,57,0.00,,---,0.00,VWS V14.01,2013-03-17 04:01:00,
2013-03-17 00:06:00,46.4,32.4,29.80,NE,48,2.7,3.6,58,0.00,,---,0.00,VWS V14.01,2013-03-17 04:06:00,
2013-03-17 00:11:00,46.0,32.5,29.80,NE,49,3.6,3.6,59,0.00,,---,0.00,VWS V14.01,2013-03-17 04:11:00,
2013-03-17 00:17:00,45.9,32.8,29.80,NE,48,3.1,3.1,60,0.00,,---,0.00,VWS V14.01,2013-03-17 04:17:00,
2013-03-17 00:22:00,45.9,33.6,29.80,NE,47,2.7,2.7,62,0.00,,---,0.00,VWS V14.01,2013-03-17 04:22:00,
2013-03-17 00:27:00,45.9,34.0,29.80,NE,47,2.7,2.7,63,0.00,,---,0.00,VWS V14.01,2013-03-17 04:27:00,
2013-03-17 00:32:00,45.7,33.8,29.80,NE,46,4.0,4.0,63,0.00,,---,0.00,VWS V14.01,2013-03-17 04:32:00,
2013-03-17 00:37:00,45.5,33.7,29.80,NE,45,2.7,3.6,63,0.00,,---,0.00,VWS V14.01,2013-03-17 04:37:00,
2013-03-17 00:42:00,45.3,33.5,29.80,NE,45,3.1,3.1,63,0.00,,---,0.00,VWS V14.01,2013-03-17 04:42:00,
2013-03-17 00:47:00,45.1,33.3,29.80,NE,47,3.1,3.1,63,0.00,,---,0.00,VWS V14.01,2013-03-17 04:47:00,
2013-03-17 00:52:00,45.0,33.1,29.80,NE,46,4.5,4.5,63,0.00,,---,0.00,VWS V14.01,2013-03-17 04:52:00,
2013-03-17 00:57:00,44.6,32.8,29.80,NE,45,3.1,3.1,63,0.00,,---,0.00,VWS V14.01,2013-03-17 04:57:00,
2013-03-17 01:02:00,44.6,32.8,29.80,NE,45,3.1,3.6,63,0.00,,---,0.00,VWS V14.01,2013-03-17 05:02:00,
2013-03-17 01:07:00,44.2,32.5,29.80,NE,44,4.0,4.0,63,0.00,,---,0.00,VWS V14.01,2013-03-17 05:07:00,
2013-03-17 01:12:00,44.1,32.3,29.80,NE,35,4.0,4.0,63,0.00,,---,0.00,VWS V14.01,2013-03-17 05:12:00,
2013-03-17 01:17:00,43.9,32.1,29.80,NE,37,3.1,3.1,63,0.00,,---,0.00,VWS V14.01,2013-03-17 05:17:00,
2013-03-17 01:22:00,43.9,32.5,29.80,NE,52,3.6,3.6,64,0.00,,---,0.00,VWS V14.01,2013-03-17 05:22:00,
2013-03-17 01:27:00,43.7,32.3,29.80,NE,51,2.7,2.7,64,0.00,,---,0.00,VWS V14.01,2013-03-17 05:27:00,
2013-03-17 01:32:00,43.5,31.8,29.80,NE,48,4.0,4.9,63,0.00,,---,0.00,VWS V14.01,2013-03-17 05:32:00,
2013-03-17 01:37:00,43.5,31.8,29.80,NE,51,0.0,2.2,63,0.00,,---,0.00,VWS V14.01,2013-03-17 05:37:00,
2013-03-17 01:42:00,43.5,31.8,29.80,NNE,22,2.7,2.7,63,0.00,,---,0.00,VWS V14.01,2013-03-17 05:42:00,
2013-03-17 01:47:00,44.4,32.6,29.80,North,353,0.0,2.2,63,0.00,,---,0.00,VWS V14.01,2013-03-17 05:47:00,
2013-03-17 01:53:00,44.4,31.8,29.80,NNE,29,4.0,4.0,61,0.00,,---,0.00,VWS V14.01,2013-03-17 05:53:00,
2013-03-17 01:58:00,44.2,31.2,29.80,NE,43,2.7,2.7,60,0.00,,---,0.00,VWS V14.01,2013-03-17 05:58:00,
2013-03-17 02:03:00,43.9,30.9,29.80,NE,43,2.7,3.1,60,0.00,,---,0.00,VWS V14.01,2013-03-17 06:03:00,
2013-03-17 02:08:00,43.5,30.6,29.80,NE,43,0.0,2.2,60,0.00,,---,0.00,VWS V14.01,2013-03-17 06:08:00,
2013-03-17 02:13:00,43.3,30.4,29.83,NE,43,3.1,3.6,60,0.00,,---,0.00,VWS V14.01,2013-03-17 06:13:00,
2013-03-17 02:18:00,43.3,30.4,29.83,NE,46,3.1,3.6,60,0.00,,---,0.00,VWS V14.01,2013-03-17 06:18:00,
2013-03-17 02:23:00,43.0,30.5,29.83,NE,55,3.6,4.0,61,0.00,,---,0.00,VWS V14.01,2013-03-17 06:23:00,
2013-03-17 02:28:00,43.0,30.5,29.83,NE,51,2.7,3.1,61,0.00,,---,0.00,VWS V14.01,2013-03-17 06:28:00,
2013-03-17 02:33:00,42.8,30.7,29.83,NE,49,2.7,2.7,62,0.00,,---,0.00,VWS V14.01,2013-03-17 06:33:00,
2013-03-17 02:38:00,42.8,31.1,29.83,NE,48,3.6,4.0,63,0.00,,---,0.00,VWS V14.01,2013-03-17 06:38:00,
2013-03-17 02:43:00,42.8,31.5,29.83,NE,48,2.7,2.7,64,0.00,,---,0.00,VWS V14.01,2013-03-17 06:43:00,
2013-03-17 02:48:00,42.8,31.5,29.83,NE,42,4.0,4.9,64,0.00,,---,0.00,VWS V14.01,2013-03-17 06:48:00,
2013-03-17 02:53:00,42.8,31.9,29.83,NE,45,2.2,3.1,65,0.00,,---,0.00,VWS V14.01,2013-03-17 06:53:00,
2013-03-17 02:58:00,42.8,31.9,29.83,NE,45,3.6,4.0,65,0.00,,---,0.00,VWS V14.01,2013-03-17 06:58:00,
2013-03-17 03:03:00,42.8,31.9,29.83,NE,45,3.6,3.6,65,0.00,,---,0.00,VWS V14.01,2013-03-17 07:03:00,
2013-03-17 03:08:00,42.6,31.7,29.83,NE,45,3.1,3.1,65,0.00,,---,0.00,VWS V14.01,2013-03-17 07:08:00,
2013-03-17 03:13:00,42.4,31.5,29.83,NE,46,2.7,2.7,65,0.00,,---,0.00,VWS V14.01,2013-03-17 07:13:00,
2013-03-17 03:18:00,42.4,31.5,29.83,NE,45,3.1,3.6,65,0.00,,---,0.00,VWS V14.01,2013-03-17 07:18:00,
2013-03-17 03:23:00,42.3,31.7,29.83,NE,46,3.1,4.0,66,0.00,,---,0.00,VWS V14.01,2013-03-17 07:23:00,
2013-03-17 03:29:00,42.3,31.7,29.83,NE,46,3.1,3.1,66,0.00,,---,0.00,VWS V14.01,2013-03-17 07:29:00,
2013-03-17 03:34:00,42.3,31.7,29.83,NE,46,2.7,3.6,66,0.00,,---,0.00,VWS V14.01,2013-03-17 07:34:00,
2013-03-17 03:39:00,42.1,31.6,29.83,NE,46,3.1,3.6,66,0.00,,---,0.00,VWS V14.01,2013-03-17 07:39:00,
2013-03-17 03:44:00,41.9,31.4,29.83,NE,46,3.1,3.6,66,0.00,,---,0.00,VWS V14.01,2013-03-17 07:44:00,
2013-03-17 03:49:00,41.7,31.2,29.83,NE,47,2.7,3.1,66,0.00,,---,0.00,VWS V14.01,2013-03-17 07:49:00,
2013-03-17 03:54:00,41.7,31.2,29.83,NE,47,3.1,4.0,66,0.00,,---,0.00,VWS V14.01,2013-03-17 07:54:00,
2013-03-17 03:59:00,41.5,31.0,29.83,NE,48,3.6,4.0,66,0.00,,---,0.00,VWS V14.01,2013-03-17 07:59:00,
2013-03-17 04:04:00,41.5,31.0,29.83,NE,45,3.6,4.0,66,0.00,,---,0.00,VWS V14.01,2013-03-17 08:04:00,
2013-03-17 04:09:00,41.4,31.2,29.83,NE,45,3.1,3.1,67,0.00,,---,0.00,VWS V14.01,2013-03-17 08:09:00,
2013-03-17 04:14:00,41.2,31.1,29.83,NE,45,2.7,3.1,67,0.00,,---,0.00,VWS V14.01,2013-03-17 08:14:00,
2013-03-17 04:19:00,41.2,31.1,29.83,NE,45,0.0,0.0,67,0.00,,---,0.00,VWS V14.01,2013-03-17 08:19:00,
2013-03-17 04:24:00,41.0,30.9,29.83,NE,45,3.6,3.6,67,0.00,,---,0.00,VWS V14.01,2013-03-17 08:24:00,
2013-03-17 04:29:00,40.8,30.7,29.83,NE,45,2.2,2.7,67,0.00,,---,0.00,VWS V14.01,2013-03-17 08:29:00,
2013-03-17 04:34:00,40.6,30.5,29.83,NE,45,2.7,2.7,67,0.00,,---,0.00,VWS V14.01,2013-03-17 08:34:00,
2013-03-17 04:39:00,40.5,30.8,29.83,NE,45,0.0,0.0,68,0.00,,---,0.00,VWS V14.01,2013-03-17 08:39:00,
2013-03-17 04:44:00,40.5,30.8,29.83,NE,45,0.0,0.0,68,0.00,,---,0.00,VWS V14.01,2013-03-17 08:44:00,
2013-03-17 04:49:00,40.5,30.8,29.83,NE,45,0.0,0.0,68,0.00,,---,0.00,VWS V14.01,2013-03-17 08:49:00,
2013-03-17 04:54:00,40.6,31.3,29.83,NE,45,0.0,2.2,69,0.00,,---,0.00,VWS V14.01,2013-03-17 08:54:00,
2013-03-17 04:59:00,40.6,31.3,29.83,NE,45,0.0,0.0,69,0.00,,---,0.00,VWS V14.01,2013-03-17 08:59:00,
2013-03-17 05:04:00,40.6,31.3,29.83,NE,45,0.0,0.0,69,0.00,,---,0.00,VWS V14.01,2013-03-17 09:04:00,
2013-03-17 05:10:00,40.5,31.1,29.83,NE,45,0.0,0.0,69,0.00,,---,0.00,VWS V14.01,2013-03-17 09:10:00,
2013-03-17 05:15:00,40.5,31.1,29.83,NE,45,2.7,3.1,69,0.00,,---,0.00,VWS V14.01,2013-03-17 09:15:00,
2013-03-17 05:20:00,40.3,30.9,29.83,NE,45,0.0,2.2,69,0.00,,---,0.00,VWS V14.01,2013-03-17 09:20:00,
2013-03-17 05:25:00,40.5,31.5,29.83,NE,45,0.0,0.0,70,0.00,,---,0.00,VWS V14.01,2013-03-17 09:25:00,
2013-03-17 05:30:00,40.5,31.5,29.83,NE,45,0.0,0.0,70,0.00,,---,0.00,VWS V14.01,2013-03-17 09:30:00,
2013-03-17 05:35:00,40.5,31.8,29.83,NE,45,2.7,2.7,71,0.00,,---,0.00,VWS V14.01,2013-03-17 09:35:00,
2013-03-17 05:40:00,40.6,32.0,29.83,NE,45,0.0,0.0,71,0.00,,---,0.00,VWS V14.01,2013-03-17 09:40:00,
2013-03-17 05:45:00,40.8,32.5,29.83,NE,45,0.0,0.0,72,0.00,,---,0.00,VWS V14.01,2013-03-17 09:45:00,
2013-03-17 05:50:00,41.2,32.8,29.83,NE,48,0.0,0.0,72,0.00,,---,0.00,VWS V14.01,2013-03-17 09:50:00,
2013-03-17 05:55:00,41.5,33.5,29.83,NE,48,0.0,0.0,73,0.00,,---,0.00,VWS V14.01,2013-03-17 09:55:00,
2013-03-17 06:00:00,41.7,33.7,29.83,NE,48,0.0,0.0,73,0.00,,---,0.00,VWS V14.01,2013-03-17 10:00:00,
2013-03-17 06:05:00,42.1,34.4,29.83,NE,48,0.0,0.0,74,0.00,,---,0.00,VWS V14.01,2013-03-17 10:05:00,
2013-03-17 06:10:00,42.3,34.2,29.83,NE,48,0.0,0.0,73,0.00,,---,0.00,VWS V14.01,2013-03-17 10:10:00,
2013-03-17 06:15:00,42.4,34.8,29.86,NE,48,0.0,0.0,74,0.00,,---,0.00,VWS V14.01,2013-03-17 10:15:00,
2013-03-17 06:20:00,42.8,34.8,29.86,NE,48,0.0,0.0,73,0.00,,---,0.00,VWS V14.01,2013-03-17 10:20:00,
2013-03-17 06:25:00,42.8,34.8,29.86,NE,48,0.0,0.0,73,0.00,,---,0.00,VWS V14.01,2013-03-17 10:25:00,
2013-03-17 06:30:00,42.8,34.8,29.86,NE,48,0.0,0.0,73,0.00,,---,0.00,VWS V14.01,2013-03-17 10:30:00,
2013-03-17 06:35:00,42.8,34.8,29.86,NE,48,0.0,0.0,73,0.00,,---,0.00,VWS V14.01,2013-03-17 10:35:00,
2013-03-17 06:40:00,42.6,34.6,29.86,NE,48,0.0,0.0,73,0.00,,---,0.00,VWS V14.01,2013-03-17 10:40:00,
2013-03-17 06:45:00,42.8,34.8,29.86,NE,48,0.0,0.0,73,0.00,,---,0.00,VWS V14.01,2013-03-17 10:45:00,
2013-03-17 06:50:00,42.8,34.8,29.86,North,353,0.0,0.0,73,0.00,,---,0.00,VWS V14.01,2013-03-17 10:50:00,
2013-03-17 06:55:00,43.0,34.9,29.86,North,353,0.0,0.0,73,0.00,,---,0.00,VWS V14.01,2013-03-17 10:55:00,
2013-03-17 07:01:00,43.0,34.9,29.86,North,353,0.0,0.0,73,0.00,,---,0.00,VWS V14.01,2013-03-17 11:01:00,
2013-03-17 07:06:00,42.8,34.8,29.86,North,353,0.0,0.0,73,0.00,,---,0.00,VWS V14.01,2013-03-17 11:06:00,
2013-03-17 07:11:00,43.0,34.9,29.86,North,353,0.0,0.0,73,0.00,,---,0.00,VWS V14.01,2013-03-17 11:11:00,
2013-03-17 07:16:00,42.8,34.8,29.86,North,353,0.0,0.0,73,0.00,,---,0.00,VWS V14.01,2013-03-17 11:16:00,
2013-03-17 07:21:00,42.8,34.8,29.86,North,353,0.0,0.0,73,0.00,,---,0.00,VWS V14.01,2013-03-17 11:21:00,
2013-03-17 07:26:00,42.6,34.6,29.86,North,353,0.0,0.0,73,0.00,,---,0.00,VWS V14.01,2013-03-17 11:26:00,
2013-03-17 07:31:00,42.6,34.6,29.89,North,353,0.0,0.0,73,0.00,,---,0.00,VWS V14.01,2013-03-17 11:31:00,
2013-03-17 07:36:00,42.4,34.4,29.89,North,353,0.0,0.0,73,0.00,,---,0.00,VWS V14.01,2013-03-17 11:36:00,
2013-03-17 07:41:00,42.4,34.4,29.89,North,353,0.0,0.0,73,0.00,,---,0.00,VWS V14.01,2013-03-17 11:41:00,
2013-03-17 07:46:00,42.4,34.8,29.89,North,353,0.0,0.0,74,0.00,,---,0.00,VWS V14.01,2013-03-17 11:46:00,
2013-03-17 07:51:00,42.4,34.8,29.89,North,353,0.0,0.0,74,0.00,,---,0.00,VWS V14.01,2013-03-17 11:51:00,
2013-03-17 07:56:00,42.6,34.9,29.89,North,353,0.0,0.0,74,0.00,,---,0.00,VWS V14.01,2013-03-17 11:56:00,
2013-03-17 08:02:00,42.8,35.1,29.89,North,353,0.0,0.0,74,0.00,,---,0.00,VWS V14.01,2013-03-17 12:02:00,
2013-03-17 08:07:00,42.8,35.1,29.89,North,353,0.0,0.0,74,0.00,,---,0.00,VWS V14.01,2013-03-17 12:07:00,
2013-03-17 08:12:00,42.8,35.1,29.89,North,353,0.0,0.0,74,0.00,,---,0.00,VWS V14.01,2013-03-17 12:12:00,
2013-03-17 08:17:00,42.8,35.1,29.89,North,353,0.0,0.0,74,0.00,,---,0.00,VWS V14.01,2013-03-17 12:17:00,
2013-03-17 08:22:00,42.8,35.1,29.89,North,0,0.0,0.0,74,0.00,,---,0.00,VWS V14.01,2013-03-17 12:22:00,
2013-03-17 08:27:00,42.6,34.9,29.92,WNW,290,0.0,0.0,74,0.00,,---,0.00,VWS V14.01,2013-03-17 12:27:00,
2013-03-17 08:32:00,42.3,34.6,29.92,WNW,290,0.0,0.0,74,0.00,,---,0.00,VWS V14.01,2013-03-17 12:32:00,
2013-03-17 08:37:00,42.1,34.4,29.92,WNW,290,0.0,0.0,74,0.00,,---,0.00,VWS V14.01,2013-03-17 12:37:00,
2013-03-17 08:42:00,42.3,34.6,29.92,WNW,294,0.0,0.0,74,0.00,,---,0.00,VWS V14.01,2013-03-17 12:42:00,
2013-03-17 08:47:00,42.4,35.1,29.92,NNE,22,0.0,0.0,75,0.00,,---,0.00,VWS V14.01,2013-03-17 12:47:00,
2013-03-17 08:52:00,42.8,35.4,29.92,NNE,22,0.0,0.0,75,0.00,,---,0.00,VWS V14.01,2013-03-17 12:52:00,
2013-03-17 08:57:00,43.2,35.8,29.95,NNE,22,0.0,0.0,75,0.00,,---,0.00,VWS V14.01,2013-03-17 12:57:00,
2013-03-17 09:02:00,43.3,36.0,29.95,NNE,24,0.0,0.0,75,0.00,,---,0.00,VWS V14.01,2013-03-17 13:02:00,
2013-03-17 09:07:00,43.7,36.3,29.95,NNE,24,0.0,0.0,75,0.00,,---,0.00,VWS V14.01,2013-03-17 13:07:00,
2013-03-17 09:12:00,43.9,36.1,29.95,NNE,25,0.0,0.0,74,0.00,,---,0.00,VWS V14.01,2013-03-17 13:12:00,
2013-03-17 09:17:00,44.1,36.0,29.95,NNE,28,0.0,0.0,73,0.00,,---,0.00,VWS V14.01,2013-03-17 13:17:00,
2013-03-17 09:22:00,44.1,36.0,29.95,NNE,28,0.0,0.0,73,0.00,,---,0.00,VWS V14.01,2013-03-17 13:22:00,
2013-03-17 09:27:00,44.1,35.6,29.95,NNE,31,0.0,0.0,72,0.00,,---,0.00,VWS V14.01,2013-03-17 13:27:00,
2013-03-17 09:32:00,44.1,34.6,29.95,ENE,70,0.0,0.0,69,0.00,,---,0.00,VWS V14.01,2013-03-17 13:32:00,
2013-03-17 09:37:00,44.1,33.8,29.95,ENE,67,0.0,0.0,67,0.00,,---,0.00,VWS V14.01,2013-03-17 13:37:00,
2013-03-17 09:42:00,44.1,33.8,29.95,ENE,67,0.0,0.0,67,0.00,,---,0.00,VWS V14.01,2013-03-17 13:42:00,
2013-03-17 09:48:00,44.2,34.0,29.95,ENE,68,0.0,0.0,67,0.00,,---,0.00,VWS V14.01,2013-03-17 13:48:00,
2013-03-17 09:53:00,44.2,34.0,29.95,ENE,68,0.0,0.0,67,0.00,,---,0.00,VWS V14.01,2013-03-17 13:53:00,
2013-03-17 09:58:00,44.4,33.8,29.95,ENE,68,0.0,0.0,66,0.00,,---,0.00,VWS V14.01,2013-03-17 13:58:00,
2013-03-17 10:03:00,44.2,33.6,29.95,ENE,68,0.0,0.0,66,0.00,,---,0.00,VWS V14.01,2013-03-17 14:03:00,
2013-03-17 10:08:00,44.1,32.3,29.95,ENE,74,2.2,3.1,63,0.00,,---,0.00,VWS V14.01,2013-03-17 14:08:00,
2013-03-17 10:13:00,44.1,31.9,29.95,ENE,74,0.0,0.0,62,0.00,,---,0.00,VWS V14.01,2013-03-17 14:13:00,
2013-03-17 10:18:00,43.9,31.3,29.95,East,85,0.0,0.0,61,0.00,,---,0.00,VWS V14.01,2013-03-17 14:18:00,
2013-03-17 10:23:00,43.7,31.5,29.95,East,85,0.0,0.0,62,0.00,,---,0.00,VWS V14.01,2013-03-17 14:23:00,
2013-03-17 10:28:00,43.7,31.1,29.95,ENE,77,2.7,2.7,61,0.00,,---,0.00,VWS V14.01,2013-03-17 14:28:00,
2013-03-17 10:33:00,43.7,30.3,29.95,ENE,77,0.0,0.0,59,0.00,,---,0.00,VWS V14.01,2013-03-17 14:33:00,
2013-03-17 10:38:00,43.7,30.3,29.95,ENE,77,0.0,0.0,59,0.00,,---,0.00,VWS V14.01,2013-03-17 14:38:00,
2013-03-17 10:43:00,43.5,30.6,29.95,ENE,77,0.0,0.0,60,0.00,,---,0.00,VWS V14.01,2013-03-17 14:43:00,
2013-03-17 10:48:00,43.5,30.6,29.95,ENE,77,0.0,0.0,60,0.00,,---,0.00,VWS V14.01,2013-03-17 14:48:00,
2013-03-17 10:53:00,43.5,29.7,29.95,ENE,77,0.0,0.0,58,0.00,,---,0.00,VWS V14.01,2013-03-17 14:53:00,
2013-03-17 10:58:00,43.5,29.7,29.95,ENE,77,0.0,0.0,58,0.00,,---,0.00,VWS V14.01,2013-03-17 14:58:00,
2013-03-17 11:03:00,43.5,30.2,29.95,ENE,77,0.0,0.0,59,0.00,,---,0.00,VWS V14.01,2013-03-17 15:03:00,
2013-03-17 11:08:00,43.5,30.2,29.95,ENE,77,0.0,0.0,59,0.00,,---,0.00,VWS V14.01,2013-03-17 15:08:00,
2013-03-17 11:13:00,43.3,30.0,29.98,East,79,0.0,0.0,59,0.00,,---,0.00,VWS V14.01,2013-03-17 15:13:00,
2013-03-17 11:18:00,43.3,30.0,29.98,East,79,0.0,0.0,59,0.00,,---,0.00,VWS V14.01,2013-03-17 15:18:00,
2013-03-17 11:23:00,43.3,30.0,29.98,East,79,0.0,0.0,59,0.00,,---,0.00,VWS V14.01,2013-03-17 15:23:00,
2013-03-17 11:28:00,43.3,30.4,29.98,East,83,0.0,0.0,60,0.00,,---,0.00,VWS V14.01,2013-03-17 15:28:00,
2013-03-17 11:33:00,43.3,30.0,29.98,East,87,0.0,0.0,59,0.00,,---,0.00,VWS V14.01,2013-03-17 15:33:00,
2013-03-17 11:39:00,43.2,29.4,29.98,East,87,0.0,0.0,58,0.00,,---,0.00,VWS V14.01,2013-03-17 15:39:00,
2013-03-17 11:44:00,43.2,29.0,29.98,East,87,0.0,0.0,57,0.00,,---,0.00,VWS V14.01,2013-03-17 15:44:00,
2013-03-17 11:49:00,43.0,27.9,29.98,ENE,75,4.0,4.9,55,0.00,,---,0.00,VWS V14.01,2013-03-17 15:49:00,
2013-03-17 11:54:00,42.8,26.9,29.98,ENE,68,0.0,2.2,53,0.00,,---,0.00,VWS V14.01,2013-03-17 15:54:00,
2013-03-17 11:59:00,42.6,27.6,29.98,East,84,0.0,2.2,55,0.00,,---,0.00,VWS V14.01,2013-03-17 15:59:00,
2013-03-17 12:04:00,42.6,27.6,29.98,East,84,0.0,0.0,55,0.00,,---,0.00,VWS V14.01,2013-03-17 16:04:00,
2013-03-17 12:09:00,42.6,27.6,29.98,East,84,0.0,0.0,55,0.00,,---,0.00,VWS V14.01,2013-03-17 16:09:00,
2013-03-17 12:14:00,42.6,27.6,29.98,East,84,0.0,0.0,55,0.00,,---,0.00,VWS V14.01,2013-03-17 16:14:00,
2013-03-17 12:19:00,42.4,27.4,29.98,East,84,0.0,0.0,55,0.00,,---,0.00,VWS V14.01,2013-03-17 16:19:00,
2013-03-17 12:24:00,42.4,27.4,29.98,East,84,0.0,0.0,55,0.00,,---,0.00,VWS V14.01,2013-03-17 16:24:00,
2013-03-17 12:29:00,42.4,27.0,29.98,East,84,0.0,0.0,54,0.00,,---,0.00,VWS V14.01,2013-03-17 16:29:00,
2013-03-17 12:34:00,42.4,26.5,29.98,East,84,0.0,0.0,53,0.00,,---,0.00,VWS V14.01,2013-03-17 16:34:00,
2013-03-17 12:39:00,42.4,27.0,29.98,East,84,0.0,0.0,54,0.00,,---,0.00,VWS V14.01,2013-03-17 16:39:00,
2013-03-17 12:44:00,42.3,27.3,29.98,East,84,0.0,0.0,55,0.00,,---,0.00,VWS V14.01,2013-03-17 16:44:00,
2013-03-17 12:49:00,42.1,27.1,29.98,East,84,0.0,0.0,55,0.00,,---,0.00,VWS V14.01,2013-03-17 16:49:00,
2013-03-17 12:54:00,42.1,27.5,29.98,East,84,0.0,0.0,56,0.00,,---,0.00,VWS V14.01,2013-03-17 16:54:00,
2013-03-17 12:59:00,41.9,27.4,29.98,East,84,0.0,0.0,56,0.00,,---,0.00,VWS V14.01,2013-03-17 16:59:00,
2013-03-17 13:04:00,41.7,27.6,29.98,East,84,0.0,0.0,57,0.00,,---,0.00,VWS V14.01,2013-03-17 17:04:00,
2013-03-17 13:09:00,41.5,27.5,29.98,East,84,0.0,0.0,57,0.00,,---,0.00,VWS V14.01,2013-03-17 17:09:00,
2013-03-17 13:14:00,41.5,27.9,29.98,East,84,0.0,0.0,58,0.00,,---,0.00,VWS V14.01,2013-03-17 17:14:00,
2013-03-17 13:19:00,41.5,27.9,29.98,East,84,0.0,0.0,58,0.00,,---,0.00,VWS V14.01,2013-03-17 17:19:00,
2013-03-17 13:24:00,41.5,27.9,29.98,East,84,0.0,0.0,58,0.00,,---,0.00,VWS V14.01,2013-03-17 17:24:00,
2013-03-17 13:30:00,41.4,27.3,29.95,East,84,0.0,0.0,57,0.00,,---,0.00,VWS V14.01,2013-03-17 17:30:00,
2013-03-17 13:35:00,41.4,26.9,29.95,East,84,0.0,0.0,56,0.00,,---,0.00,VWS V14.01,2013-03-17 17:35:00,
2013-03-17 13:40:00,41.5,27.5,29.95,East,90,0.0,0.0,57,0.00,,---,0.00,VWS V14.01,2013-03-17 17:40:00,
2013-03-17 13:45:00,41.5,27.5,29.95,East,89,0.0,0.0,57,0.00,,---,0.00,VWS V14.01,2013-03-17 17:45:00,
2013-03-17 13:50:00,41.4,27.3,29.95,ENE,63,2.2,3.1,57,0.00,,---,0.00,VWS V14.01,2013-03-17 17:50:00,
2013-03-17 13:55:00,41.4,27.3,29.95,ENE,63,2.2,2.7,57,0.00,,---,0.00,VWS V14.01,2013-03-17 17:55:00,
2013-03-17 14:00:00,41.4,27.7,29.95,ENE,63,0.0,0.0,58,0.00,,---,0.00,VWS V14.01,2013-03-17 18:00:00,
2013-03-17 14:05:00,41.5,27.9,29.95,ENE,63,0.0,0.0,58,0.00,,---,0.00,VWS V14.01,2013-03-17 18:05:00,
2013-03-17 14:10:00,41.5,28.7,29.95,NE,34,0.0,0.0,60,0.00,,---,0.00,VWS V14.01,2013-03-17 18:10:00,
2013-03-17 14:15:00,41.5,28.7,29.95,NE,34,0.0,0.0,60,0.00,,---,0.00,VWS V14.01,2013-03-17 18:15:00,
2013-03-17 14:20:00,41.7,29.3,29.95,NE,34,0.0,0.0,61,0.00,,---,0.00,VWS V14.01,2013-03-17 18:20:00,
2013-03-17 14:25:00,41.9,29.9,29.95,NE,34,0.0,0.0,62,0.00,,---,0.00,VWS V14.01,2013-03-17 18:25:00,
2013-03-17 14:30:00,42.1,30.4,29.95,ENE,59,0.0,0.0,63,0.00,,---,0.00,VWS V14.01,2013-03-17 18:30:00,
2013-03-17 14:35:00,41.9,30.2,29.95,SE,127,3.1,3.1,63,0.00,,---,0.00,VWS V14.01,2013-03-17 18:35:00,
2013-03-17 14:40:00,41.7,30.5,29.95,ENE,69,3.1,3.1,64,0.00,,---,0.00,VWS V14.01,2013-03-17 18:40:00,
2013-03-17 14:45:00,41.7,30.8,29.95,NNW,340,2.7,2.7,65,0.00,,---,0.00,VWS V14.01,2013-03-17 18:45:00,
2013-03-17 14:50:00,41.7,30.8,29.95,ENE,61,0.0,0.0,65,0.00,,---,0.00,VWS V14.01,2013-03-17 18:50:00,
2013-03-17 14:55:00,41.7,30.8,29.95,NNE,32,3.1,3.1,65,0.00,,---,0.00,VWS V14.01,2013-03-17 18:55:00,
2013-03-17 15:00:00,41.5,30.7,29.95,NNE,28,2.7,2.7,65,0.00,,---,0.00,VWS V14.01,2013-03-17 19:00:00,
2013-03-17 15:05:00,41.4,30.5,29.95,North,1,2.7,2.7,65,0.00,,---,0.00,VWS V14.01,2013-03-17 19:05:00,
2013-03-17 15:10:00,41.4,30.9,29.95,NE,43,2.7,3.6,66,0.00,,---,0.00,VWS V14.01,2013-03-17 19:10:00,
2013-03-17 15:15:00,41.4,30.9,29.95,NNE,28,0.0,0.0,66,0.00,,---,0.00,VWS V14.01,2013-03-17 19:15:00,
2013-03-17 15:20:00,41.4,30.9,29.95,SE,132,0.0,0.0,66,0.00,,---,0.00,VWS V14.01,2013-03-17 19:20:00,
2013-03-17 15:25:00,41.2,30.7,29.95,NE,41,0.0,0.0,66,0.00,,---,0.00,VWS V14.01,2013-03-17 19:25:00,
2013-03-17 15:30:00,41.4,31.2,29.95,NNE,33,2.2,3.6,67,0.00,,---,0.00,VWS V14.01,2013-03-17 19:30:00,
2013-03-17 15:35:00,41.2,31.1,29.95,ENE,61,2.2,2.2,67,0.00,,---,0.00,VWS V14.01,2013-03-17 19:35:00,
2013-03-17 15:40:00,41.0,30.9,29.95,NNE,26,0.0,0.0,67,0.00,,---,0.00,VWS V14.01,2013-03-17 19:40:00,
2013-03-17 15:46:00,41.0,30.9,29.95,NE,54,3.1,4.0,67,0.00,,---,0.00,VWS V14.01,2013-03-17 19:46:00,
2013-03-17 15:51:00,41.0,31.6,29.95,NE,43,5.4,7.6,69,0.00,,---,0.00,VWS V14.01,2013-03-17 19:51:00,
2013-03-17 15:56:00,41.0,31.6,29.95,NE,46,0.0,5.8,69,0.00,,---,0.00,VWS V14.01,2013-03-17 19:56:00,
2013-03-17 16:01:00,40.8,31.5,29.95,WNW,288,0.0,0.0,69,0.00,,---,0.00,VWS V14.01,2013-03-17 20:01:00,
2013-03-17 16:06:00,40.6,31.3,29.95,ENE,74,2.7,2.7,69,0.00,,---,0.00,VWS V14.01,2013-03-17 20:06:00,
2013-03-17 16:11:00,40.6,31.3,29.95,NNE,25,4.5,4.5,69,0.00,,---,0.00,VWS V14.01,2013-03-17 20:11:00,
2013-03-17 16:16:00,40.5,31.1,29.95,North,5,2.7,2.7,69,0.00,,---,0.00,VWS V14.01,2013-03-17 20:16:00,
2013-03-17 16:22:00,40.3,30.9,29.95,ENE,73,0.0,4.0,69,0.00,,---,0.00,VWS V14.01,2013-03-17 20:22:00,
2013-03-17 16:27:00,40.3,30.9,29.95,NE,46,2.7,3.1,69,0.00,,---,0.00,VWS V14.01,2013-03-17 20:27:00,
2013-03-17 16:32:00,40.3,30.9,29.95,NNE,19,3.1,3.1,69,0.00,,---,0.00,VWS V14.01,2013-03-17 20:32:00,
2013-03-17 16:37:00,40.1,30.8,29.95,NE,38,4.0,4.0,69,0.00,,---,0.00,VWS V14.01,2013-03-17 20:37:00,
2013-03-17 16:42:00,39.9,30.6,29.95,North,0,0.0,0.0,69,0.00,,---,0.00,VWS V14.01,2013-03-17 20:42:00,
2013-03-17 16:47:00,39.9,30.6,29.95,NNE,29,0.0,0.0,69,0.00,,---,0.00,VWS V14.01,2013-03-17 20:47:00,
2013-03-17 16:52:00,39.7,30.4,29.95,NNE,20,6.3,6.3,69,0.00,,---,0.00,VWS V14.01,2013-03-17 20:52:00,
2013-03-17 16:57:00,39.7,30.4,29.95,NW,322,3.1,3.1,69,0.00,,---,0.00,VWS V14.01,2013-03-17 20:57:00,
2013-03-17 17:02:00,39.6,29.9,29.95,North,10,5.4,6.3,68,0.00,,---,0.00,VWS V14.01,2013-03-17 21:02:00,
2013-03-17 17:07:00,39.4,29.7,29.95,NW,315,0.0,0.0,68,0.00,,---,0.00,VWS V14.01,2013-03-17 21:07:00,
2013-03-17 17:12:00,39.2,29.5,29.95,ENE,64,2.7,3.6,68,0.00,,---,0.00,VWS V14.01,2013-03-17 21:12:00,
2013-03-17 17:17:00,39.2,29.9,29.95,NE,43,2.2,4.0,69,0.00,,---,0.00,VWS V14.01,2013-03-17 21:17:00,
2013-03-17 17:22:00,39.0,29.7,29.95,East,79,3.1,4.0,69,0.00,,---,0.00,VWS V14.01,2013-03-17 21:22:00,
2013-03-17 17:28:00,39.2,30.2,29.95,ENE,77,0.0,0.0,70,0.00,,---,0.00,VWS V14.01,2013-03-17 21:28:00,
2013-03-17 17:33:00,39.0,30.1,29.95,SE,139,3.1,4.0,70,0.00,,---,0.00,VWS V14.01,2013-03-17 21:33:00,
2013-03-17 17:38:00,38.8,29.9,29.95,ENE,73,0.0,3.6,70,0.00,,---,0.00,VWS V14.01,2013-03-17 21:38:00,
2013-03-17 17:43:00,38.8,29.9,29.95,NE,39,3.1,5.4,70,0.00,,---,0.00,VWS V14.01,2013-03-17 21:43:00,
2013-03-17 17:48:00,38.7,30.1,29.95,North,7,2.7,4.0,71,0.00,,---,0.00,VWS V14.01,2013-03-17 21:48:00,
2013-03-17 17:53:00,38.7,30.1,29.95,NNE,27,4.9,5.8,71,0.00,,---,0.00,VWS V14.01,2013-03-17 21:53:00,
2013-03-17 17:58:00,38.5,29.9,29.95,NNE,18,11.9,11.9,71,0.00,,---,0.00,VWS V14.01,2013-03-17 21:58:00,
2013-03-17 18:03:00,38.3,29.7,29.95,ESE,102,2.7,2.7,71,0.00,,---,0.00,VWS V14.01,2013-03-17 22:03:00,
2013-03-17 18:08:00,38.1,29.6,29.95,NE,44,6.3,6.3,71,0.00,,---,0.00,VWS V14.01,2013-03-17 22:08:00,
2013-03-17 18:13:00,37.9,29.4,29.98,North,357,5.4,5.4,71,0.00,,---,0.00,VWS V14.01,2013-03-17 22:13:00,
2013-03-17 18:18:00,37.9,29.4,29.98,North,6,2.2,2.2,71,0.00,,---,0.00,VWS V14.01,2013-03-17 22:18:00,
2013-03-17 18:23:00,37.8,29.2,29.98,East,88,3.6,3.6,71,0.00,,---,0.00,VWS V14.01,2013-03-17 22:23:00,
2013-03-17 18:28:00,37.6,29.0,29.98,SSW,203,4.0,4.0,71,0.00,,---,0.00,VWS V14.01,2013-03-17 22:28:00,
2013-03-17 18:33:00,37.6,29.4,29.98,ENE,63,0.0,0.0,72,0.00,,---,0.00,VWS V14.01,2013-03-17 22:33:00,
2013-03-17 18:38:00,37.6,29.4,29.98,NE,37,0.0,3.6,72,0.00,,---,0.00,VWS V14.01,2013-03-17 22:38:00,
2013-03-17 18:43:00,37.6,29.7,29.98,NNE,30,4.0,6.3,73,0.00,,---,0.00,VWS V14.01,2013-03-17 22:43:00,
2013-03-17 18:48:00,37.6,29.7,29.98,NE,55,0.0,2.7,73,0.00,,---,0.00,VWS V14.01,2013-03-17 22:48:00,
2013-03-17 18:54:00,37.4,29.5,29.98,East,81,3.1,3.6,73,0.00,,---,0.00,VWS V14.01,2013-03-17 22:54:00,
2013-03-17 18:59:00,37.4,29.5,29.98,NNE,25,3.1,4.0,73,0.00,,---,0.00,VWS V14.01,2013-03-17 22:59:00,
2013-03-17 19:04:00,37.2,29.7,29.98,ENE,61,3.6,3.6,74,0.00,,---,0.00,VWS V14.01,2013-03-17 23:04:00,
2013-03-17 19:09:00,37.2,29.7,29.98,ENE,70,0.0,0.0,74,0.00,,---,0.00,VWS V14.01,2013-03-17 23:09:00,
2013-03-17 19:14:00,37.2,29.7,30.01,NE,41,2.2,4.0,74,0.00,,---,0.00,VWS V14.01,2013-03-17 23:14:00,
2013-03-17 19:19:00,37.2,29.7,30.01,NNE,15,3.6,3.6,74,0.00,,---,0.00,VWS V14.01,2013-03-17 23:19:00,
2013-03-17 19:24:00,37.0,29.5,30.01,NE,39,3.1,3.1,74,0.00,,---,0.00,VWS V14.01,2013-03-17 23:24:00,
2013-03-17 19:29:00,37.0,29.5,30.01,NE,45,0.0,0.0,74,0.00,,---,0.00,VWS V14.01,2013-03-17 23:29:00,
2013-03-17 19:34:00,36.9,29.4,30.01,NE,40,0.0,2.7,74,0.00,,---,0.00,VWS V14.01,2013-03-17 23:34:00,
2013-03-17 19:39:00,36.9,29.4,30.01,NE,56,0.0,2.2,74,0.00,,---,0.00,VWS V14.01,2013-03-17 23:39:00,
2013-03-17 19:44:00,36.7,29.2,30.01,NNE,13,0.0,0.0,74,0.00,,---,0.00,VWS V14.01,2013-03-17 23:44:00,
2013-03-17 19:49:00,36.7,29.2,30.01,ENE,70,0.0,2.7,74,0.00,,---,0.00,VWS V14.01,2013-03-17 23:49:00,
2013-03-17 19:54:00,36.3,28.8,30.01,NE,49,0.0,0.0,74,0.00,,---,0.00,VWS V14.01,2013-03-17 23:54:00,
2013-03-17 19:59:00,36.3,28.8,29.98,ENE,71,0.0,0.0,74,0.00,,---,0.00,VWS V14.01,2013-03-17 23:59:00,
2013-03-17 20:04:00,36.1,28.7,29.98,ENE,70,0.0,0.0,74,0.00,,---,0.00,VWS V14.01,2013-03-18 00:04:00,
2013-03-17 20:09:00,36.1,28.7,29.98,ENE,60,0.0,0.0,74,0.00,,---,0.00,VWS V14.01,2013-03-18 00:09:00,
2013-03-17 20:15:00,36.1,29.0,30.01,NNE,26,0.0,0.0,75,0.00,,---,0.00,VWS V14.01,2013-03-18 00:15:00,
2013-03-17 20:20:00,36.0,28.8,30.01,NE,44,0.0,0.0,75,0.00,,---,0.00,VWS V14.01,2013-03-18 00:20:00,
2013-03-17 20:25:00,36.0,28.8,30.01,NE,46,0.0,0.0,75,0.00,,---,0.00,VWS V14.01,2013-03-18 00:25:00,
2013-03-17 20:30:00,36.0,28.8,29.98,West,274,3.6,3.6,75,0.00,,---,0.00,VWS V14.01,2013-03-18 00:30:00,
2013-03-17 20:35:00,35.8,28.6,29.98,North,2,0.0,0.0,75,0.00,,---,0.00,VWS V14.01,2013-03-18 00:35:00,
2013-03-17 20:40:00,35.8,28.6,29.98,ENE,72,0.0,0.0,75,0.00,,---,0.00,VWS V14.01,2013-03-18 00:40:00,
2013-03-17 20:45:00,35.6,28.5,30.01,ENE,71,0.0,0.0,75,0.08,,---,0.08,VWS V14.01,2013-03-18 00:45:00,
2013-03-17 20:50:00,35.4,28.3,30.01,NE,45,4.9,7.6,75,0.08,,---,0.08,VWS V14.01,2013-03-18 00:50:00,
2013-03-17 20:55:00,35.4,28.6,30.01,NNE,29,0.0,0.0,76,0.08,,---,0.08,VWS V14.01,2013-03-18 00:55:00,
2013-03-17 21:09:00,35.4,28.3,30.01,NNE,28,0.0,0.0,75,0.08,,---,0.08,VWS V14.01,2013-03-18 01:09:00,
2013-03-17 21:14:00,35.2,28.1,30.01,ENE,69,3.6,3.6,75,0.08,,---,0.08,VWS V14.01,2013-03-18 01:14:00,
2013-03-17 21:19:00,35.2,28.1,30.01,NE,52,0.0,0.0,75,0.08,,---,0.08,VWS V14.01,2013-03-18 01:19:00,
2013-03-17 21:24:00,35.2,28.1,30.01,NNE,17,0.0,2.7,75,0.08,,---,0.08,VWS V14.01,2013-03-18 01:24:00,
2013-03-17 21:30:00,35.1,28.0,30.01,NE,39,0.0,2.7,75,0.08,,---,0.08,VWS V14.01,2013-03-18 01:30:00,
2013-03-17 21:35:00,34.9,27.8,30.01,NE,39,0.0,0.0,75,0.08,,---,0.08,VWS V14.01,2013-03-18 01:35:00,
2013-03-17 21:40:00,34.7,27.6,30.01,NNE,31,4.9,4.9,75,0.08,,---,0.08,VWS V14.01,2013-03-18 01:40:00,
2013-03-17 21:45:00,34.7,27.6,30.01,NE,53,0.0,3.1,75,0.00,,---,0.08,VWS V14.01,2013-03-18 01:45:00,
2013-03-17 21:50:00,34.5,27.4,30.01,ENE,62,0.0,2.2,75,0.00,,---,0.08,VWS V14.01,2013-03-18 01:50:00,
2013-03-17 21:55:00,34.5,27.4,30.01,SE,129,0.0,0.0,75,0.04,,---,0.12,VWS V14.01,2013-03-18 01:55:00,
2013-03-17 22:00:00,34.5,27.4,30.01,ENE,62,0.0,0.0,75,0.04,,---,0.12,VWS V14.01,2013-03-18 02:00:00,
2013-03-17 22:05:00,34.5,27.4,30.01,NNE,17,2.7,2.7,75,0.04,,---,0.12,VWS V14.01,2013-03-18 02:05:00,
2013-03-17 22:10:00,34.5,27.4,30.01,NNE,20,0.0,3.1,75,0.04,,---,0.12,VWS V14.01,2013-03-18 02:10:00,
2013-03-17 22:15:00,34.5,27.4,30.03,NE,37,0.0,0.0,75,0.04,,---,0.12,VWS V14.01,2013-03-18 02:15:00,
2013-03-17 22:20:00,34.5,27.4,30.03,NNE,22,0.0,2.2,75,0.04,,---,0.12,VWS V14.01,2013-03-18 02:20:00,
2013-03-17 22:25:00,34.3,27.2,30.03,North,357,4.0,4.0,75,0.04,,---,0.12,VWS V14.01,2013-03-18 02:25:00,
2013-03-17 22:30:00,34.3,27.2,30.03,NNE,21,0.0,0.0,75,0.04,,---,0.12,VWS V14.01,2013-03-18 02:30:00,
2013-03-17 22:35:00,34.3,27.2,30.03,NE,36,0.0,0.0,75,0.04,,---,0.12,VWS V14.01,2013-03-18 02:35:00,
2013-03-17 22:40:00,34.2,27.1,30.03,NE,36,0.0,0.0,75,0.04,,---,0.12,VWS V14.01,2013-03-18 02:40:00,
2013-03-17 22:45:00,34.2,27.1,30.03,NE,36,0.0,0.0,75,0.04,,---,0.12,VWS V14.01,2013-03-18 02:45:00,
2013-03-17 22:50:00,34.2,27.1,30.03,NE,36,0.0,0.0,75,0.04,,---,0.12,VWS V14.01,2013-03-18 02:50:00,
2013-03-17 22:55:00,34.2,27.1,30.03,NE,34,0.0,0.0,75,0.00,,---,0.12,VWS V14.01,2013-03-18 02:55:00,
2013-03-17 23:00:00,34.2,27.1,30.03,NE,34,0.0,0.0,75,0.00,,---,0.12,VWS V14.01,2013-03-18 03:00:00,
2013-03-17 23:05:00,34.0,26.9,30.03,NE,34,0.0,0.0,75,0.00,,---,0.12,VWS V14.01,2013-03-18 03:05:00,
2013-03-17 23:10:00,34.0,26.9,30.03,NNE,24,0.0,2.2,75,0.00,,---,0.12,VWS V14.01,2013-03-18 03:10:00,
2013-03-17 23:15:00,34.0,26.9,30.03,NNE,27,3.1,3.1,75,0.00,,---,0.12,VWS V14.01,2013-03-18 03:15:00,
2013-03-17 23:20:00,33.8,27.0,30.03,NE,46,2.7,3.1,76,0.00,,---,0.12,VWS V14.01,2013-03-18 03:20:00,
2013-03-17 23:25:00,33.8,27.0,30.03,ENE,68,0.0,0.0,76,0.00,,---,0.12,VWS V14.01,2013-03-18 03:25:00,
2013-03-17 23:31:00,33.8,27.0,30.03,ENE,68,0.0,0.0,76,0.00,,---,0.12,VWS V14.01,2013-03-18 03:31:00,
2013-03-17 23:36:00,33.6,26.9,30.03,ENE,69,0.0,0.0,76,0.00,,---,0.12,VWS V14.01,2013-03-18 03:36:00,
2013-03-17 23:41:00,33.4,26.7,30.03,ENE,69,0.0,0.0,76,0.00,,---,0.12,VWS V14.01,2013-03-18 03:41:00,
2013-03-17 23:46:00,33.3,26.5,30.03,ENE,69,0.0,0.0,76,0.00,,---,0.12,VWS V14.01,2013-03-18 03:46:00,
2013-03-17 23:51:00,33.3,26.5,30.03,ENE,69,0.0,0.0,76,0.00,,---,0.12,VWS V14.01,2013-03-18 03:51:00,
2013-03-17 23:56:00,33.3,26.5,30.03,ENE,69,0.0,0.0,76,0.00,,---,0.12,VWS V14.01,2013-03-18 03:56:00,